Location: Hamayl? Da??
(36.7028°N, 30.1716°E)
Time: 11:39:14
(UTC+00:00)

Cosmos 2219 Rocket - Pass Details

Date: 04 August 2024
Orbit: 826 x 846 km, 71.0° (Epoch: 12 September)

Event Time Altitude Azimuth Distance (km) Brightness Sun altitude
Exits shadow 23:48:17 48° 85° (E) 1,091 2.8 -31.2°
Drops below altitude 10° 23:53:07 10° 33° (NNE) 2,471 5.5 -30.7°
Sets 23:55:38 0° 28° (NNE) 3,411 6.5 -30.4°
